Tracking 30101 objects as of 13-Dec-2024
HD Live streaming from Space Station
objects crossing your sky now

STARLINK-31265

Track STARLINK-31265 now!
10-day predictions
STARLINK-31265 is classified as:


NORAD ID: 59074
Int'l Code: 2024-041A
Perigee: 494.6 km
Apogee: 495.8 km
Inclination: 43.0 °
Period: 94.4 minutes
Semi major axis: 6866 km
RCS: Unknown
Launch date: February 29, 2024
Source: United States (US)
Launch site: AIR FORCE EASTERN TEST RANGE (AFETR)
Your satellite tracking list
Your tracking list is empty




NASA's NSSDC Master Catalog

Two Line Element Set (TLE):
1 59074U 24041A   24348.01028873  .00003092  00000-0  12800-3 0  9994
2 59074  43.0073 338.9149 0000919 242.1226 117.9532 15.25905389 45238
Source of the keplerian elements: AFSPC